ONEWEB-0046 (45447 NORAD) Tracking and Keplerian Element Data

This shows tracking and keplerian element data for the satellite.

Feedback or suggestion? Click here.




ElementValue
Catalog45447
NameONEWEB-0046
Epoch Orbit3212
Epoch Day297.91667824
Epoch Year2020
RAAN71.768
Inclination87.797
Eccentricity0.0023104
Argument of Perigee244.9629
Mean Anonmoly115.4673
Mean Motion13.92867838
Decay Rate-0.00018386
L11 45447U 20020Z 20297.91667824 -.00018386 00000-0 -14214-1 0 9992
L22 45447 87.7970 71.7680 0023104 244.9629 115.4673 13.92867838 32129

Live tracking and technical data element details for ONEWEB-0046 (NORAD 45447). ONEWEB-0046 can be tracked NOW for your location showing map with azimuth and elevation plus other details from your city location.

Track the satellite on the map from your city or location and see movement details for azimuth, elevation, latitude, longitude, range, height, and movement on the map or in text.







IsCatalogInMostPopularTable: catalog: 45447, numindb: 49
Update: records affected: 1



GetName: 45447 ONEWEB-0046

Hit Count: updated at: Sat, 24 Oct 2020 22:35:41 GMT